Regional Weather Roundup
Issued by NWS

Home | Current Version | Previous Version | Text Only | Print | Product List | Glossary Off
Versions: 1 2 3 4 5 6 7 8 9 10 11 12 13 14 15 16 17 18 19 20 21 22 23 24 25 26 27 28 29 30 31 32 33 34 35 36 37 38 39 40 41 42 43 44 45 46 47 48 49 50

000
ASUS43 KDMX 240406
RWRIA

WEATHER ROUNDUP FOR IOWA
NATIONAL WEATHER SERVICE DES MOINES IA
1100 PM CDT SUN JUL 23 2017

NOTE: "FAIR" INDICATES FEW OR NO CLOUDS BELOW 12,000 FEET WITH NO
SIGNIFICANT WEATHER AND/OR OBSTRUCTIONS TO VISIBILITY.

* - THESE STATIONS ARE NOT NWS STATIONS...THUS NOT UNDER NWS
QUALITY CONTROL.  THEY ALSO DO NOT REPORT WEATHER SUCH
AS PRECIPITATION OR FOG.

IAZ001>003-012>014-020>022-031>034-043>046-240500-
   NORTHWEST IOWA

CITY           SKY/WX    TMP DP  RH WIND       PRES   REMARKS
CARROLL *      PTCLDY    64  63  94 N5        30.00R
CHEROKEE *     CLEAR     65  60  84 NE3       30.01S
DENISON *      CLEAR     66  61  82 NE6       30.02R
ORANGE CITY *  CLEAR     66  61  82 NE3       30.02R
SHELDON *      CLEAR     61  59  94 CALM      30.01R
SIOUX CITY     CLEAR     70  62  76 E8        29.99R
SPENCER        CLEAR     62  59  90 N6        30.01R
STORM LAKE *   CLEAR     64  57  77 N5        30.02R
$$

IAZ055>058-069>071-079>083-090>094-240500-
   SOUTHWEST IOWA

CITY           SKY/WX    TMP DP  RH WIND       PRES   REMARKS
ATLANTIC *     CLEAR     68  63  83 NE5       30.00R
AUDUBON *      CLEAR     66  61  82 CALM      30.01R
CLARINDA *     CLEAR     66  66 100 CALM      30.00R
COUNCIL BLFS * CLEAR     70  64  83 NE5       29.99R
CRESTON *      CLEAR     70  61  73 NE9       30.00R
HARLAN  *      CLEAR     66  64  94 NE6       30.03R
LAMONI         CLEAR     70  63  78 NE7       29.97R
RED OAK *      CLEAR     66  64  94 N6        29.98R
SHENANDOAH *   CLEAR     68  66  94 N3        29.98R
$$

IAZ047>049-059>061-072>074-084-240500-
   CENTRAL IOWA

CITY           SKY/WX    TMP DP  RH WIND       PRES   REMARKS
AMES           CLEAR     67  63  87 N6        29.97R
ANKENY *       CLEAR     68  61  77 CALM      29.98R
BOONE *        CLEAR     66  59  77 N8        29.97S
CHARITON *     CLEAR     70  63  78 NE6       29.97R
DES MOINES     CLEAR     73  59  61 N3        29.96R
GRINNELL*      CLEAR     66  61  82 NW5       29.97R
KNOXVILLE *    CLEAR     72  61  68 N5        29.96R
MARSHALLTOWN   CLEAR     64  62  93 N8        29.95S
NEWTON *       CLEAR     66  61  82 N5        29.97R
PELLA *        CLEAR     68  61  78 CALM      29.97R
$$

IAZ004>006-015-016-023>025-035-036-240500-
   NORTH CENTRAL IOWA

CITY           SKY/WX    TMP DP  RH WIND       PRES   REMARKS
ALGONA *       CLEAR     64  63  94 CALM      30.00R
CLARION *      CLEAR     64  63  94 N5        29.99R
ESTHERVILLE    CLEAR     61  60  97 N5        30.00R
FORT DODGE *   CLEAR     64  57  77 NW3       30.00R
MASON CITY     PTCLDY    63  60  90 N7        30.00R
FOREST CITY *    N/A     66  61  82 NE6       29.99S
WEBSTER CITY * CLEAR     61  59  94 N5        29.97R
IOWA FALLS *     N/A     65  61  89 N5        29.99S
$$

IAZ007>011-017>019-026>030-037>042-050>054-066-240500-
   NORTHEAST IOWA

CITY           SKY/WX    TMP DP  RH WIND       PRES   REMARKS
CEDAR RAPIDS   CLEAR     66  64  93 NW5       29.93R
CHARLES CITY * CLEAR     64  63  94 NE7       29.99R
DECORAH *      CLEAR     63  59  88 N5        29.96S
DUBUQUE        CLEAR     66  61  84 N8        29.93R
MONTICELLO *   CLEAR     66  63  88 NW5       29.93R
OELWEIN *        N/A    N/A N/A N/A MISG        N/A
WATERLOO       CLEAR     65  61  87 N8        29.95R
$$

IAZ064-065-067-068-078-240500-
   EAST CENTRAL IOWA

CITY           SKY/WX    TMP DP  RH WIND       PRES   REMARKS
DAVENPORT      CLEAR     67  63  87 NW6       29.93R
IOWA CITY      CLEAR     74  61  63 N7        29.94R
MT. PLEASANT * CLEAR     71  61  70 NW5       29.93S
MUSCATINE *    CLEAR     70  63  78 N5        29.92R
QUAD CITIES    CLEAR     74  61  63 NW6       29.90R
$$

IAZ062-063-075>077-085>089-095>099-240500-
   SOUTHEAST IOWA

CITY           SKY/WX    TMP DP  RH WIND       PRES   REMARKS
BURLINGTON     CLEAR     71  64  78 NW6       29.92R
FAIRFIELD *    CLEAR     66  61  82 N8        29.94R
FORT MADISON * CLEAR     70  64  83 CALM      29.94R
KEOKUK *       CLEAR     73  63  68 N3        29.93R
OSKALOOSA *      N/A     67  61  82 N5        29.96R
CENTERVILLE *    N/A     70  61  73 CALM      29.98R
OTTUMWA        CLEAR     69  62  78 N6        29.95R
$$

ABBREVIATIONS USED IN REMARKS
   TC - TEMPERATURES IN CELSIUS
  WCI - WIND CHILL INDEX
   HX - HEAT INDEX
  VSB - VISIBILITY
$$





USA.gov is the U.S. government's official web portal to all federal, state and local government web resources and services.